Home   Weather   Saint-Petersburg   Past weeks

Flag for Russia Past Weather in Saint-Petersburg, Russia — Yesterday and Last 2 Weeks

Now
32 °F

Chilly.


Feels Like: 29 °F
Forecast: 29 / 41 °F
Wind: 3 mph from Northwest

Location: St. Petersburg

Current Time: Apr 23, 2017 at 8:32:11 am

Latest Report: Apr 23, 2017 at 7:30 am


Visibility: 1 mi

Pressure: 29.36 "Hg

Humidity: 100%

Dew Point: 32 °F

Location of Saint-PetersburgLocation

Past Weather in Saint-Petersburg — Graph

°F

Saint-Petersburg Temperature Yesterday

Maximum temperature yesterday: 37 °F (at 5:00 pm)
Minimum temperature yesterday: 30 °F (at 3:30 am)
Average temperature yesterday: 34 °F

High & Low Weather Summary for the Past Weeks

 TemperatureHumidityPressure
High61 °F (Apr 10, 3:30 pm)100% (Apr 12, 9:00 am)30.51 "Hg (Apr 12, 9:00 am)
Low16 °F (Apr 16, 5:00 am)33% (Apr 19, 1:00 pm)29.15 "Hg (Apr 22, 8:30 am)
Average34 °F73%29.77 "Hg
* Reported Apr 8 7:00 am — Apr 23 7:30 am, Saint-Petersburg, Weather by CustomWeather, © 2017

Note: Actual official high and low records may vary slightly from our data, if they occured in-between our weather recording intervals... More about our weather records

Advertising

Saint-Petersburg Weather History for the Previous 24 Hours

Scroll right to see more
 ConditionsComfort  
Time TempWeatherWind HumidityBarometerVisibility
7:30 am
Sun, Apr 23
32 °FChilly.3 mph100%29.36 "Hg1 mi
7:00 am32 °FChilly.6 mph100%29.36 "Hg1 mi
6:30 am32 °FChilly.6 mph100%29.36 "Hg1 mi
6:00 am32 °FChilly.6 mph100%29.33 "Hg1 mi
5:30 am34 °FSnow flurries. Cloudy.6 mph93%29.33 "Hg2 mi
5:00 am34 °FSprinkles. Overcast.6 mph93%29.33 "Hg6 mi
4:30 am34 °FSprinkles. Overcast.8 mph93%29.30 "HgN/A
4:00 am34 °FSprinkles. Overcast.8 mph93%29.30 "HgN/A
3:30 am34 °FSprinkles. Overcast.6 mph93%29.30 "HgN/A
3:00 am34 °FOvercast.8 mph93%29.30 "HgN/A
2:30 am36 °FSprinkles. Overcast.6 mph87%29.30 "HgN/A
2:00 am36 °FOvercast.6 mph87%29.30 "HgN/A
1:30 am34 °FSprinkles. Overcast.6 mph93%29.30 "Hg5 mi
1:00 am32 °FChilly.8 mph100%29.30 "Hg1 mi
12:30 am34 °FSnow flurries. Overcast.8 mph93%29.30 "Hg1 mi
12:00 am34 °FSprinkles. Overcast.10 mph93%29.27 "Hg4 mi
11:30 pm
Sat, Apr 22
34 °FSprinkles. Overcast.10 mph93%29.27 "HgN/A
11:00 pm34 °FSprinkles. Overcast.10 mph93%29.27 "Hg6 mi
10:30 pm34 °FSprinkles. Overcast.13 mph93%29.27 "Hg6 mi
9:30 pm36 °FSprinkles. Overcast.10 mph87%29.27 "HgN/A
9:00 pm36 °FMostly cloudy.13 mph87%29.27 "HgN/A
8:30 pm36 °FMore clouds than sun.13 mph87%29.24 "HgN/A
8:00 pm36 °FMore clouds than sun.8 mph87%29.24 "HgN/A
7:30 pm36 °FMore clouds than sun.13 mph87%29.24 "HgN/A
7:00 pm37 °FMore clouds than sun.10 mph81%29.24 "HgN/A
6:30 pm37 °FMostly cloudy.10 mph87%29.21 "HgN/A
6:00 pm37 °FMostly cloudy.13 mph81%29.21 "HgN/A
5:30 pm37 °FCloudy.10 mph87%29.21 "HgN/A
5:00 pm37 °FCloudy.10 mph87%29.21 "HgN/A
4:30 pm36 °FCloudy.10 mph93%29.21 "HgN/A
4:00 pm36 °FMostly cloudy.10 mph87%29.18 "HgN/A
3:30 pm36 °FSprinkles. Mostly cloudy.6 mph93%29.18 "Hg5 mi
3:00 pm36 °FSnow flurries. Mostly cloudy.6 mph87%29.18 "Hg3 mi
2:30 pm36 °FSnow flurries. Mostly cloudy.3 mph93%29.18 "Hg2 mi
2:00 pm34 °FSnow flurries. Mostly cloudy.3 mph100%29.18 "Hg2 mi
1:30 pm34 °FSnow flurries. Mostly cloudy.3 mph93%29.18 "Hg2 mi
1:00 pm36 °FSnow flurries. Mostly cloudy.3 mph93%29.18 "Hg2 mi
12:30 pm34 °FSnow flurries. Mostly cloudy.3 mph100%29.18 "Hg2 mi
12:00 pm34 °FSnow flurries. Mostly cloudy.6 mph93%29.15 "Hg1 mi
11:30 am34 °FSnow flurries. Mostly cloudy.6 mph93%29.15 "Hg1 mi
11:00 am34 °FSnow flurries. Mostly cloudy.6 mph93%29.15 "Hg1 mi
10:30 am32 °FSleet. Cloudy.6 mph100%29.15 "Hg1 mi
9:30 am32 °FChilly.3 mph100%29.15 "Hg1 mi
9:00 am34 °FSleet. Cloudy.6 mph93%29.15 "Hg1 mi
8:30 am34 °FSprinkles. Mostly cloudy.8 mph93%29.15 "Hg4 mi
8:00 am34 °FSprinkles. Cloudy.8 mph93%29.18 "Hg3 mi
Weather by CustomWeather, © 2017

See weather overviewHow to use our weather pages